Hourly Weather Barrancas

Today, 18 April, Sunday

Time Temperature Precipitation Wind Pressure Humidity
00:00 +32°C° 0 mm 7 mps 752 mmHg 50%
01:00 +30°C° 0 mm 7 mps 752 mmHg 54%
02:00 +30°C° 0 mm 7 mps 752 mmHg 57%
03:00 +29°C° 0 mm 7 mps 752 mmHg 60%
04:00 +28°C° 0 mm 6 mps 752 mmHg 62%
05:00 +28°C° 0 mm 6 mps 752 mmHg 64%
06:00 +28°C° 0 mm 7 mps 753 mmHg 62%
07:00 +29°C° 0 mm 7 mps 753 mmHg 61%
08:00 +29°C° 0 mm 7 mps 754 mmHg 59%
09:00 +32°C° 0 mm 7 mps 754 mmHg 53%
10:00 +33°C° 0 mm 7 mps 754 mmHg 46%
11:00 +35°C° 0 mm 7 mps 753 mmHg 39%
12:00 +36°C° 0 mm 7 mps 752 mmHg 35%
13:00 +38°C° 0 mm 7 mps 752 mmHg 31%
14:00 +39°C° 0 mm 7 mps 751 mmHg 27%
15:00 +39°C° 0 mm 7 mps 750 mmHg 26%
16:00 +40°C° 0 mm 6 mps 750 mmHg 26%
17:00 +40°C° 0 mm 6 mps 749 mmHg 25%
18:00 +39°C° 0 mm 6 mps 750 mmHg 27%
19:00 +37°C° 0 mm 5 mps 750 mmHg 29%
20:00 +36°C° 0 mm 5 mps 750 mmHg 30%
21:00 +35°C° 0 mm 6 mps 751 mmHg 34%
22:00 +34°C° 0 mm 7 mps 752 mmHg 38%
23:00 +33°C° 0 mm 8 mps 752 mmHg 42%

Tomorrow, 19 April, Monday

Time Temperature Precipitation Wind Pressure Humidity
00:00 +32°C° 0 mm 7 mps 752 mmHg 47%
01:00 +30°C° 0 mm 7 mps 752 mmHg 51%
02:00 +29°C° 0 mm 7 mps 752 mmHg 56%
03:00 +28°C° 0 mm 7 mps 752 mmHg 59%
04:00 +28°C° 0 mm 6 mps 753 mmHg 61%
05:00 +27°C° 0 mm 6 mps 753 mmHg 64%
06:00 +28°C° 0 mm 6 mps 753 mmHg 63%
07:00 +28°C° 0 mm 7 mps 754 mmHg 61%
08:00 +28°C° 0 mm 7 mps 755 mmHg 60%
09:00 +30°C° 0 mm 7 mps 755 mmHg 53%
10:00 +33°C° 0 mm 7 mps 755 mmHg 47%
11:00 +35°C° 0 mm 7 mps 755 mmHg 40%
12:00 +36°C° 0 mm 7 mps 754 mmHg 36%
13:00 +38°C° 0 mm 7 mps 752 mmHg 31%
14:00 +39°C° 0 mm 7 mps 751 mmHg 27%
15:00 +39°C° 0 mm 6 mps 751 mmHg 25%
16:00 +40°C° 0 mm 6 mps 750 mmHg 24%
17:00 +40°C° 0 mm 6 mps 750 mmHg 23%
18:00 +39°C° 0 mm 6 mps 750 mmHg 26%
19:00 +38°C° 0 mm 6 mps 751 mmHg 29%
20:00 +35°C° 0 mm 6 mps 751 mmHg 32%
21:00 +34°C° 0 mm 7 mps 752 mmHg 38%
22:00 +33°C° 0 mm 7 mps 752 mmHg 43%
23:00 +32°C° 0 mm 7 mps 753 mmHg 48%

Day after tomorrow, 20 April, Tuesday

Time Temperature Precipitation Wind Pressure Humidity
00:00 +32°C° 0 mm 7 mps 753 mmHg 51%
01:00 +30°C° 0 mm 6 mps 753 mmHg 53%
02:00 +29°C° 0 mm 6 mps 752 mmHg 56%
03:00 +29°C° 0 mm 6 mps 753 mmHg 59%
04:00 +28°C° 0 mm 6 mps 753 mmHg 62%
05:00 +27°C° 0 mm 5 mps 753 mmHg 65%
06:00 +28°C° 0 mm 6 mps 754 mmHg 64%
07:00 +28°C° 0 mm 6 mps 754 mmHg 64%
08:00 +28°C° 0 mm 6 mps 755 mmHg 64%
09:00 +30°C° 0 mm 6 mps 755 mmHg 57%
10:00 +33°C° 0 mm 6 mps 754 mmHg 49%
11:00 +35°C° 0 mm 6 mps 754 mmHg 42%
12:00 +36°C° 0 mm 6 mps 753 mmHg 37%
13:00 +37°C° 0 mm 5 mps 752 mmHg 32%
14:00 +39°C° 0 mm 5 mps 751 mmHg 28%
15:00 +39°C° 0 mm 5 mps 751 mmHg 27%
16:00 +39°C° 0 mm 5 mps 750 mmHg 26%
17:00 +39°C° 0 mm 6 mps 750 mmHg 26%
18:00 +39°C° 0 mm 5 mps 750 mmHg 26%
19:00 +37°C° 0 mm 5 mps 751 mmHg 27%
20:00 +36°C° 0 mm 5 mps 751 mmHg 28%
21:00 +35°C° 0 mm 5 mps 751 mmHg 34%
22:00 +33°C° 0 mm 6 mps 752 mmHg 41%
23:00 +32°C° 0 mm 6 mps 752 mmHg 47%

21 April, Wednesday

Time Temperature Precipitation Wind Pressure Humidity
00:00 +32°C° 0 mm 6 mps 752 mmHg 49%
01:00 +30°C° 0 mm 6 mps 752 mmHg 50%
02:00 +29°C° 0 mm 6 mps 752 mmHg 52%
03:00 +28°C° 0 mm 6 mps 752 mmHg 55%
04:00 +28°C° 0 mm 6 mps 752 mmHg 59%
05:00 +27°C° 0 mm 5 mps 753 mmHg 62%
06:00 +28°C° 0 mm 6 mps 753 mmHg 62%
07:00 +28°C° 0 mm 6 mps 754 mmHg 62%
08:00 +28°C° 0 mm 6 mps 754 mmHg 62%
09:00 +30°C° 0 mm 6 mps 754 mmHg 55%
10:00 +33°C° 0 mm 6 mps 754 mmHg 48%
11:00 +35°C° 0 mm 5 mps 754 mmHg 40%
12:00 +36°C° 0 mm 5 mps 753 mmHg 37%
13:00 +37°C° 0 mm 5 mps 752 mmHg 33%
14:00 +40°C° 0 mm 4 mps 751 mmHg 29%
15:00 +40°C° 0 mm 4 mps 750 mmHg 27%
16:00 +40°C° 0 mm 4 mps 749 mmHg 26%
17:00 +40°C° 0 mm 4 mps 749 mmHg 24%
18:00 +40°C° 0 mm 4 mps 749 mmHg 25%
19:00 +38°C° 0 mm 3 mps 749 mmHg 26%
20:00 +37°C° 0 mm 3 mps 750 mmHg 27%
21:00 +36°C° 0 mm 4 mps 750 mmHg 32%
22:00 +34°C° 0 mm 6 mps 751 mmHg 36%
23:00 +33°C° 0 mm 7 mps 752 mmHg 41%

22 April, Thursday

Time Temperature Precipitation Wind Pressure Humidity
00:00 +32°C° 0 mm 7 mps 751 mmHg 46%
01:00 +32°C° 0 mm 7 mps 751 mmHg 51%
02:00 +30°C° 0 mm 6 mps 751 mmHg 56%
03:00 +30°C° 0 mm 6 mps 752 mmHg 58%
04:00 +29°C° 0 mm 6 mps 752 mmHg 60%
05:00 +29°C° 0 mm 5 mps 752 mmHg 62%
06:00 +29°C° 0 mm 6 mps 753 mmHg 60%
07:00 +29°C° 0 mm 6 mps 753 mmHg 59%
08:00 +30°C° 0 mm 6 mps 753 mmHg 57%
09:00 +32°C° 0 mm 6 mps 753 mmHg 52%
10:00 +34°C° 0 mm 6 mps 753 mmHg 47%
11:00 +36°C° 0 mm 6 mps 753 mmHg 41%
12:00 +38°C° 0 mm 6 mps 752 mmHg 37%
13:00 +39°C° 0 mm 5 mps 751 mmHg 32%
14:00 +41°C° 0 mm 5 mps 750 mmHg 28%
15:00 +41°C° 0 mm 5 mps 749 mmHg 26%
16:00 +41°C° 0 mm 4 mps 749 mmHg 25%
17:00 +41°C° 0 mm 4 mps 748 mmHg 23%
18:00 +40°C° 0 mm 4 mps 748 mmHg 25%
19:00 +39°C° 0 mm 5 mps 749 mmHg 27%
20:00 +37°C° 0 mm 5 mps 749 mmHg 30%
21:00 +36°C° 0 mm 6 mps 750 mmHg 35%
22:00 +35°C° 0 mm 7 mps 750 mmHg 40%
23:00 +34°C° 0 mm 8 mps 751 mmHg 46%

23 April, Friday

Time Temperature Precipitation Wind Pressure Humidity
00:00 +33°C° 0 mm 7 mps 751 mmHg 49%
01:00 +32°C° 0 mm 7 mps 751 mmHg 52%
02:00 +30°C° 0 mm 7 mps 751 mmHg 56%
03:00 +30°C° 0 mm 7 mps 751 mmHg 58%
04:00 +29°C° 0 mm 6 mps 751 mmHg 61%
05:00 +28°C° 0 mm 6 mps 752 mmHg 63%
06:00 +29°C° 0 mm 7 mps 752 mmHg 63%
07:00 +29°C° 0 mm 7 mps 753 mmHg 62%
08:00 +29°C° 0 mm 8 mps 753 mmHg 61%
09:00 +32°C° 0 mm 8 mps 753 mmHg 54%
10:00 +34°C° 0 mm 8 mps 753 mmHg 47%
11:00 +37°C° 0 mm 8 mps 753 mmHg 39%
12:00 +38°C° 0 mm 7 mps 752 mmHg 35%
13:00 +40°C° 0 mm 7 mps 751 mmHg 32%
14:00 +41°C° 0 mm 6 mps 750 mmHg 28%
15:00 +41°C° 0 mm 6 mps 749 mmHg 27%
16:00 +41°C° 0 mm 5 mps 748 mmHg 27%
17:00 +41°C° 0 mm 5 mps 748 mmHg 26%
18:00 +40°C° 0 mm 5 mps 748 mmHg 27%
19:00 +40°C° 0 mm 5 mps 749 mmHg 29%
20:00 +39°C° 0 mm 5 mps 749 mmHg 30%
21:00 +37°C° 0 mm 5 mps 750 mmHg 34%
22:00 +36°C° 0 mm 6 mps 750 mmHg 39%
23:00 +34°C° 0 mm 7 mps 751 mmHg 43%
Show more